Time,TemperatureF,DewpointF,PressureIn,WindDirection,WindDirectionDegrees,WindSpeedMPH,WindSpeedGustMPH,Humidity,HourlyPrecipIn,Conditions,Clouds,dailyrainin,SoftwareType,DateUTC
2013-10-24 00:00:00,49.7,40.7,30.13,West,278,0.0,0.0,71,0.00,FEW,FEW,0.00,WeatherDisplay:10.37,2013-10-24 05:00:00,
2013-10-24 00:06:00,49.5,40.4,30.13,NNE,13,3.0,6.0,71,0.00,FEW,FEW,0.00,WeatherDisplay:10.37,2013-10-24 05:06:00,
2013-10-24 00:12:00,49.5,40.4,30.13,NW,321,3.0,4.0,71,0.00,FEW,FEW,0.00,WeatherDisplay:10.37,2013-10-24 05:12:00,
2013-10-24 00:18:00,49.3,40.3,30.14,NNE,23,6.0,8.0,71,0.00,FEW,FEW,0.00,WeatherDisplay:10.37,2013-10-24 05:18:00,
2013-10-24 00:24:00,49.1,40.4,30.14,ENE,64,5.0,7.0,72,0.00,FEW,FEW,0.00,WeatherDisplay:10.37,2013-10-24 05:24:00,
2013-10-24 00:30:00,49.0,40.4,30.13,ENE,70,2.0,10.0,72,0.00,FEW,FEW,0.00,WeatherDisplay:10.37,2013-10-24 05:30:00,
2013-10-24 00:36:00,48.8,40.5,30.13,ENE,71,3.0,7.0,73,0.00,FEW,FEW,0.00,WeatherDisplay:10.37,2013-10-24 05:36:00,
2013-10-24 00:42:00,48.6,40.7,30.13,East,81,3.0,5.0,74,0.00,FEW,FEW,0.00,WeatherDisplay:10.37,2013-10-24 05:42:00,
2013-10-24 00:48:00,48.8,40.8,30.14,ENE,72,3.0,6.0,74,0.00,FEW,FEW,0.00,WeatherDisplay:10.37,2013-10-24 05:48:00,
2013-10-24 00:54:00,48.8,40.8,30.14,NE,50,7.0,12.0,74,0.00,FEW,FEW,0.00,WeatherDisplay:10.37,2013-10-24 05:54:00,
2013-10-24 01:00:00,48.8,40.8,30.14,East,90,7.0,12.0,74,0.00,FEW,FEW,0.00,WeatherDisplay:10.37,2013-10-24 06:00:00,
2013-10-24 01:06:00,48.6,40.6,30.14,NE,54,9.0,17.0,74,0.00,CLR,CLR,0.00,WeatherDisplay:10.37,2013-10-24 06:06:00,
2013-10-24 01:12:00,48.6,40.6,30.14,NE,47,5.0,8.0,74,0.00,CLR,CLR,0.00,WeatherDisplay:10.37,2013-10-24 06:12:00,
2013-10-24 01:18:00,48.6,40.6,30.14,ENE,78,7.0,13.0,74,0.00,CLR,CLR,0.00,WeatherDisplay:10.37,2013-10-24 06:18:00,
2013-10-24 01:24:00,48.4,40.5,30.14,ENE,75,9.0,12.0,74,0.00,CLR,CLR,0.00,WeatherDisplay:10.37,2013-10-24 06:24:00,
2013-10-24 01:30:00,48.4,40.5,30.14,ENE,73,7.0,10.0,74,0.00,CLR,CLR,0.00,WeatherDisplay:10.37,2013-10-24 06:30:00,
2013-10-24 01:36:00,48.2,39.9,30.14,East,82,8.0,15.0,73,0.00,CLR,CLR,0.00,WeatherDisplay:10.37,2013-10-24 06:36:00,
2013-10-24 01:42:00,48.1,39.9,30.15,ENE,76,7.0,12.0,73,0.00,CLR,CLR,0.00,WeatherDisplay:10.37,2013-10-24 06:42:00,
2013-10-24 01:48:00,47.8,39.6,30.15,NE,54,6.0,15.0,73,0.00,CLR,CLR,0.00,WeatherDisplay:10.37,2013-10-24 06:48:00,
2013-10-24 01:54:00,47.5,39.2,30.17,NNE,31,6.0,10.0,73,0.00,CLR,CLR,0.00,WeatherDisplay:10.37,2013-10-24 06:54:00,
2013-10-24 02:00:00,47.3,39.0,30.17,East,85,7.0,12.0,73,0.00,CLR,CLR,0.00,WeatherDisplay:10.37,2013-10-24 07:00:00,
2013-10-24 02:06:00,47.2,38.9,30.17,NE,51,9.0,13.0,73,0.00,CLR,CLR,0.00,WeatherDisplay:10.37,2013-10-24 07:06:00,
2013-10-24 02:12:00,46.7,38.5,30.17,NE,43,6.0,9.0,73,0.00,CLR,CLR,0.00,WeatherDisplay:10.37,2013-10-24 07:12:00,
2013-10-24 02:18:00,46.5,38.0,30.18,ESE,107,7.0,8.0,72,0.00,CLR,CLR,0.00,WeatherDisplay:10.37,2013-10-24 07:18:00,
2013-10-24 02:24:00,46.3,38.1,30.18,ESE,108,5.0,7.0,73,0.00,CLR,CLR,0.00,WeatherDisplay:10.37,2013-10-24 07:24:00,
2013-10-24 02:30:00,46.1,37.9,30.19,East,79,8.0,10.0,73,0.00,CLR,CLR,0.00,WeatherDisplay:10.37,2013-10-24 07:30:00,
2013-10-24 02:36:00,45.9,37.7,30.19,ENE,75,6.0,10.0,73,0.00,CLR,CLR,0.00,WeatherDisplay:10.37,2013-10-24 07:36:00,
2013-10-24 02:42:00,45.6,37.4,30.19,ENE,64,5.0,10.0,73,0.00,CLR,CLR,0.00,WeatherDisplay:10.37,2013-10-24 07:42:00,
2013-10-24 02:48:00,45.5,37.3,30.20,East,99,3.0,5.0,73,0.00,CLR,CLR,0.00,WeatherDisplay:10.37,2013-10-24 07:48:00,
2013-10-24 02:54:00,45.0,37.2,30.20,East,86,3.0,8.0,74,0.00,CLR,CLR,0.00,WeatherDisplay:10.37,2013-10-24 07:54:00,
2013-10-24 03:00:00,45.0,37.2,30.20,East,99,6.0,9.0,74,0.00,CLR,CLR,0.00,WeatherDisplay:10.37,2013-10-24 08:00:00,
2013-10-24 03:06:00,44.8,37.0,30.20,ENE,75,5.0,8.0,74,0.00,CLR,CLR,0.00,WeatherDisplay:10.37,2013-10-24 08:06:00,
2013-10-24 03:12:00,44.5,37.0,30.20,ENE,69,3.0,7.0,75,0.00,CLR,CLR,0.00,WeatherDisplay:10.37,2013-10-24 08:12:00,
2013-10-24 03:18:00,44.3,37.2,30.21,East,101,3.0,10.0,76,0.00,CLR,CLR,0.00,WeatherDisplay:10.37,2013-10-24 08:18:00,
2013-10-24 03:24:00,43.9,36.8,30.21,East,93,6.0,8.0,76,0.00,CLR,CLR,0.00,WeatherDisplay:10.37,2013-10-24 08:24:00,
2013-10-24 03:30:00,43.6,36.5,30.22,ESE,108,5.0,8.0,76,0.00,CLR,CLR,0.00,WeatherDisplay:10.37,2013-10-24 08:30:00,
2013-10-24 03:36:00,43.4,36.3,30.22,ENE,76,5.0,10.0,76,0.00,CLR,CLR,0.00,WeatherDisplay:10.37,2013-10-24 08:36:00,
2013-10-24 03:42:00,43.2,36.4,30.22,NE,46,7.0,9.0,77,0.00,CLR,CLR,0.00,WeatherDisplay:10.37,2013-10-24 08:42:00,
2013-10-24 03:48:00,43.0,36.2,30.22,ENE,61,7.0,14.0,77,0.00,CLR,CLR,0.00,WeatherDisplay:10.37,2013-10-24 08:48:00,
2013-10-24 03:54:00,42.8,36.0,30.22,ESE,104,9.0,12.0,77,0.00,CLR,CLR,0.00,WeatherDisplay:10.37,2013-10-24 08:54:00,
2013-10-24 04:00:00,42.7,36.0,30.22,East,95,5.0,8.0,77,0.00,CLR,CLR,0.00,WeatherDisplay:10.37,2013-10-24 09:00:00,
2013-10-24 04:06:00,42.3,35.9,30.22,ENE,76,3.0,7.0,78,0.00,CLR,CLR,0.00,WeatherDisplay:10.37,2013-10-24 09:06:00,
2013-10-24 04:12:00,41.9,35.8,30.22,East,83,8.0,15.0,79,0.00,CLR,CLR,0.00,WeatherDisplay:10.37,2013-10-24 09:12:00,
2013-10-24 04:18:00,41.8,35.7,30.22,East,87,8.0,12.0,79,0.00,CLR,CLR,0.00,WeatherDisplay:10.37,2013-10-24 09:18:00,
2013-10-24 04:24:00,41.6,36.2,30.22,NE,42,5.0,7.0,81,0.00,CLR,CLR,0.00,WeatherDisplay:10.37,2013-10-24 09:24:00,
2013-10-24 04:30:00,41.4,36.0,30.23,East,87,3.0,6.0,81,0.00,CLR,CLR,0.00,WeatherDisplay:10.37,2013-10-24 09:30:00,
2013-10-24 04:36:00,41.0,35.9,30.23,ENE,64,5.0,7.0,82,0.00,CLR,CLR,0.00,WeatherDisplay:10.37,2013-10-24 09:36:00,
2013-10-24 04:42:00,40.9,35.8,30.24,NE,50,3.0,7.0,82,0.00,CLR,CLR,0.00,WeatherDisplay:10.37,2013-10-24 09:42:00,
2013-10-24 04:48:00,40.7,35.6,30.24,East,81,3.0,5.0,82,0.00,CLR,CLR,0.00,WeatherDisplay:10.37,2013-10-24 09:48:00,
2013-10-24 04:54:00,40.5,35.7,30.24,East,80,0.0,4.0,83,0.00,CLR,CLR,0.00,WeatherDisplay:10.37,2013-10-24 09:54:00,
2013-10-24 05:00:00,40.3,35.5,30.24,ENE,74,6.0,12.0,83,0.00,CLR,CLR,0.00,WeatherDisplay:10.37,2013-10-24 10:00:00,
2013-10-24 05:06:00,40.3,35.5,30.25,East,82,5.0,8.0,83,0.00,CLR,CLR,0.00,WeatherDisplay:10.37,2013-10-24 10:06:00,
2013-10-24 05:12:00,40.3,35.5,30.25,NE,50,5.0,8.0,83,0.00,CLR,CLR,0.00,WeatherDisplay:10.37,2013-10-24 10:12:00,
2013-10-24 05:18:00,40.1,35.3,30.25,North,1,5.0,7.0,83,0.00,CLR,CLR,0.00,WeatherDisplay:10.37,2013-10-24 10:18:00,
2013-10-24 05:24:00,40.1,35.3,30.25,NNE,23,2.0,5.0,83,0.00,CLR,CLR,0.00,WeatherDisplay:10.37,2013-10-24 10:24:00,
2013-10-24 05:30:00,39.6,35.1,30.26,East,97,6.0,7.0,84,0.00,CLR,CLR,0.00,WeatherDisplay:10.37,2013-10-24 10:30:00,
2013-10-24 05:36:00,39.6,35.1,30.26,East,85,6.0,8.0,84,0.00,CLR,CLR,0.00,WeatherDisplay:10.37,2013-10-24 10:36:00,
2013-10-24 05:42:00,39.8,35.3,30.27,ESE,107,5.0,6.0,84,0.00,CLR,CLR,0.00,WeatherDisplay:10.37,2013-10-24 10:42:00,
2013-10-24 05:48:00,39.4,34.9,30.27,East,95,3.0,6.0,84,0.00,CLR,CLR,0.00,WeatherDisplay:10.37,2013-10-24 10:48:00,
2013-10-24 05:54:00,39.1,34.9,30.27,East,89,3.0,7.0,85,0.00,CLR,CLR,0.00,WeatherDisplay:10.37,2013-10-24 10:54:00,
2013-10-24 06:00:00,39.1,34.9,30.27,East,98,3.0,6.0,85,0.00,CLR,CLR,0.00,WeatherDisplay:10.37,2013-10-24 11:00:00,
2013-10-24 06:06:00,39.1,34.9,30.27,ENE,71,3.0,6.0,85,0.00,CLR,CLR,0.00,WeatherDisplay:10.37,2013-10-24 11:06:00,
2013-10-24 06:12:00,38.9,34.7,30.28,East,88,0.0,5.0,85,0.00,CLR,CLR,0.00,WeatherDisplay:10.37,2013-10-24 11:12:00,
2013-10-24 06:18:00,38.7,34.8,30.29,East,97,6.0,8.0,86,0.00,CLR,CLR,0.00,WeatherDisplay:10.37,2013-10-24 11:18:00,
2013-10-24 06:24:00,38.7,34.8,30.29,East,80,5.0,8.0,86,0.00,CLR,CLR,0.00,WeatherDisplay:10.37,2013-10-24 11:24:00,
2013-10-24 06:30:00,38.5,34.6,30.28,East,87,2.0,6.0,86,0.00,CLR,CLR,0.00,WeatherDisplay:10.37,2013-10-24 11:30:00,
2013-10-24 06:36:00,38.5,34.6,30.28,ENE,73,5.0,6.0,86,0.00,CLR,CLR,0.00,WeatherDisplay:10.37,2013-10-24 11:36:00,
2013-10-24 06:42:00,38.5,34.6,30.29,ENE,76,5.0,9.0,86,0.00,CLR,CLR,0.00,WeatherDisplay:10.37,2013-10-24 11:42:00,
2013-10-24 06:48:00,38.3,34.4,30.29,East,86,6.0,8.0,86,0.00,CLR,CLR,0.00,WeatherDisplay:10.37,2013-10-24 11:48:00,
2013-10-24 06:54:00,38.5,34.6,30.29,East,84,5.0,8.0,86,0.00,CLR,CLR,0.00,WeatherDisplay:10.37,2013-10-24 11:54:00,
2013-10-24 07:00:00,38.5,34.6,30.29,ENE,65,5.0,10.0,86,0.00,CLR,CLR,0.00,WeatherDisplay:10.37,2013-10-24 12:00:00,
2013-10-24 07:06:00,38.4,34.6,30.30,East,92,5.0,9.0,86,0.00,CLR,CLR,0.00,WeatherDisplay:10.37,2013-10-24 12:06:00,
2013-10-24 07:12:00,38.5,34.6,30.29,East,82,6.0,13.0,86,0.00,CLR,CLR,0.00,WeatherDisplay:10.37,2013-10-24 12:12:00,
2013-10-24 07:18:00,38.3,34.4,30.29,ENE,77,6.0,7.0,86,0.00,CLR,CLR,0.00,WeatherDisplay:10.37,2013-10-24 12:18:00,
2013-10-24 07:24:00,38.3,34.4,30.29,East,79,3.0,7.0,86,0.00,CLR,CLR,0.00,WeatherDisplay:10.37,2013-10-24 12:24:00,
2013-10-24 07:30:00,38.2,34.3,30.30,NE,50,0.0,2.0,86,0.00,CLR,CLR,0.00,WeatherDisplay:10.37,2013-10-24 12:30:00,
2013-10-24 07:36:00,38.0,34.4,30.30,SSW,202,2.0,5.0,87,0.00,CLR,CLR,0.00,WeatherDisplay:10.37,2013-10-24 12:36:00,
2013-10-24 07:42:00,37.8,34.2,30.31,NE,43,3.0,7.0,87,0.00,CLR,CLR,0.00,WeatherDisplay:10.37,2013-10-24 12:42:00,
2013-10-24 07:48:00,37.8,34.2,30.31,NE,39,3.0,5.0,87,0.00,CLR,CLR,0.00,WeatherDisplay:10.37,2013-10-24 12:48:00,
2013-10-24 07:54:00,37.8,34.2,30.31,ENE,68,2.0,5.0,87,0.00,CLR,CLR,0.00,WeatherDisplay:10.37,2013-10-24 12:54:00,
2013-10-24 08:00:00,37.6,34.3,30.31,ESE,117,3.0,7.0,88,0.00,CLR,CLR,0.00,WeatherDisplay:10.37,2013-10-24 13:00:00,
2013-10-24 08:06:00,37.8,34.5,30.32,East,97,5.0,10.0,88,0.00,CLR,CLR,0.00,WeatherDisplay:10.37,2013-10-24 13:06:00,
2013-10-24 08:12:00,37.8,34.5,30.32,East,97,6.0,9.0,88,0.00,CLR,CLR,0.00,WeatherDisplay:10.37,2013-10-24 13:12:00,
2013-10-24 08:18:00,38.0,34.7,30.33,East,82,5.0,7.0,88,0.00,CLR,CLR,0.00,WeatherDisplay:10.37,2013-10-24 13:18:00,
2013-10-24 08:24:00,38.3,35.0,30.33,East,84,3.0,6.0,88,0.00,CLR,CLR,0.00,WeatherDisplay:10.37,2013-10-24 13:24:00,
2013-10-24 08:30:00,38.3,35.0,30.33,East,92,2.0,7.0,88,0.00,CLR,CLR,0.00,WeatherDisplay:10.37,2013-10-24 13:30:00,
2013-10-24 08:36:00,38.3,35.0,30.33,East,79,6.0,7.0,88,0.00,CLR,CLR,0.00,WeatherDisplay:10.37,2013-10-24 13:36:00,
2013-10-24 08:42:00,38.7,35.1,30.34,East,85,7.0,10.0,87,0.00,CLR,CLR,0.00,WeatherDisplay:10.37,2013-10-24 13:42:00,
2013-10-24 08:48:00,39.2,35.3,30.34,East,92,7.0,8.0,86,0.00,CLR,CLR,0.00,WeatherDisplay:10.37,2013-10-24 13:48:00,
2013-10-24 08:54:00,39.4,35.2,30.34,NE,46,5.0,8.0,85,0.00,CLR,CLR,0.00,WeatherDisplay:10.37,2013-10-24 13:54:00,
2013-10-24 09:00:00,40.0,35.8,30.34,East,90,6.0,7.0,85,0.00,CLR,CLR,0.00,WeatherDisplay:10.37,2013-10-24 14:00:00,
2013-10-24 09:06:00,40.0,35.5,30.35,East,101,6.0,10.0,84,0.00,CLR,CLR,0.00,WeatherDisplay:10.37,2013-10-24 14:06:00,
2013-10-24 09:12:00,40.5,35.7,30.35,ENE,77,6.0,7.0,83,0.00,CLR,CLR,0.00,WeatherDisplay:10.37,2013-10-24 14:12:00,
2013-10-24 09:18:00,40.9,35.2,30.35,ENE,61,3.0,12.0,80,0.00,CLR,CLR,0.00,WeatherDisplay:10.37,2013-10-24 14:18:00,
2013-10-24 09:24:00,41.0,34.9,30.35,NNE,31,9.0,9.0,79,0.00,CLR,CLR,0.00,WeatherDisplay:10.37,2013-10-24 14:24:00,
2013-10-24 09:30:00,41.7,35.0,30.36,NNE,20,5.0,7.0,77,0.00,CLR,CLR,0.00,WeatherDisplay:10.37,2013-10-24 14:30:00,
2013-10-24 09:36:00,42.1,34.4,30.36,ESE,104,7.0,12.0,74,0.00,CLR,CLR,0.00,WeatherDisplay:10.37,2013-10-24 14:36:00,
2013-10-24 09:42:00,42.5,34.1,30.36,ENE,71,8.0,15.0,72,0.00,CLR,CLR,0.00,WeatherDisplay:10.37,2013-10-24 14:42:00,
2013-10-24 09:48:00,42.7,33.6,30.36,East,79,9.0,12.0,70,0.00,CLR,CLR,0.00,WeatherDisplay:10.37,2013-10-24 14:48:00,
2013-10-24 09:54:00,43.0,33.5,30.37,East,85,9.0,14.0,69,0.00,CLR,CLR,0.00,WeatherDisplay:10.37,2013-10-24 14:54:00,
2013-10-24 10:00:00,43.2,32.6,30.37,East,93,7.0,12.0,66,0.00,CLR,CLR,0.00,WeatherDisplay:10.37,2013-10-24 15:00:00,
2013-10-24 10:06:00,43.6,32.9,30.38,East,93,7.0,10.0,66,0.00,FEW,FEW,0.00,WeatherDisplay:10.37,2013-10-24 15:06:00,
2013-10-24 10:12:00,43.7,32.7,30.38,ENE,72,8.0,9.0,65,0.00,FEW,FEW,0.00,WeatherDisplay:10.37,2013-10-24 15:12:00,
2013-10-24 10:18:00,43.9,32.9,30.39,East,94,6.0,6.0,65,0.00,FEW,FEW,0.00,WeatherDisplay:10.37,2013-10-24 15:18:00,
2013-10-24 10:24:00,43.9,32.9,30.39,ESE,113,6.0,6.0,65,0.00,FEW,FEW,0.00,WeatherDisplay:10.37,2013-10-24 15:24:00,
2013-10-24 10:30:00,43.9,32.9,30.39,ESE,113,6.0,6.0,65,0.00,FEW,FEW,0.00,WeatherDisplay:10.37,2013-10-24 15:30:00,
2013-10-24 10:36:00,43.9,32.9,30.39,ESE,113,6.0,6.0,65,0.00,FEW,FEW,0.00,WeatherDisplay:10.37,2013-10-24 15:36:00,
2013-10-24 10:42:00,43.9,32.9,30.39,ESE,111,6.0,10.0,65,0.00,FEW,FEW,0.00,WeatherDisplay:10.37,2013-10-24 15:42:00,
2013-10-24 10:48:00,45.4,32.7,30.38,ENE,76,8.0,12.0,61,0.00,FEW,FEW,0.00,WeatherDisplay:10.37,2013-10-24 15:48:00,
2013-10-24 10:54:00,45.7,33.0,30.39,ENE,77,6.0,12.0,61,0.00,FEW,FEW,0.00,WeatherDisplay:10.37,2013-10-24 15:54:00,
2013-10-24 11:00:00,46.1,33.4,30.39,East,82,6.0,7.0,61,0.00,FEW,FEW,0.00,WeatherDisplay:10.37,2013-10-24 16:00:00,
2013-10-24 11:06:00,46.3,33.1,30.40,East,92,7.0,14.0,60,0.00,FEW,FEW,0.00,WeatherDisplay:10.37,2013-10-24 16:06:00,
2013-10-24 11:12:00,46.2,33.0,30.40,East,90,7.0,13.0,60,0.00,FEW,FEW,0.00,WeatherDisplay:10.37,2013-10-24 16:12:00,
2013-10-24 11:18:00,46.3,32.8,30.39,ESE,102,8.0,10.0,59,0.00,FEW,FEW,0.00,WeatherDisplay:10.37,2013-10-24 16:18:00,
2013-10-24 11:24:00,46.4,32.4,30.39,ENE,73,9.0,12.0,58,0.00,FEW,FEW,0.00,WeatherDisplay:10.37,2013-10-24 16:24:00,
2013-10-24 11:30:00,47.0,32.5,30.39,East,93,12.0,15.0,57,0.00,FEW,FEW,0.00,WeatherDisplay:10.37,2013-10-24 16:30:00,
2013-10-24 11:36:00,47.4,32.9,30.39,NNE,32,6.0,9.0,57,0.00,FEW,FEW,0.00,WeatherDisplay:10.37,2013-10-24 16:36:00,
2013-10-24 11:42:00,48.2,33.2,30.39,NE,42,9.0,16.0,56,0.00,FEW,FEW,0.00,WeatherDisplay:10.37,2013-10-24 16:42:00,
2013-10-24 11:48:00,47.9,33.3,30.39,ENE,62,6.0,12.0,57,0.00,FEW,FEW,0.00,WeatherDisplay:10.37,2013-10-24 16:48:00,
2013-10-24 11:54:00,49.0,33.5,30.39,North,360,7.0,10.0,55,0.00,FEW,FEW,0.00,WeatherDisplay:10.37,2013-10-24 16:54:00,
2013-10-24 12:00:00,48.5,33.5,30.39,North,4,6.0,9.0,56,0.00,FEW,FEW,0.00,WeatherDisplay:10.37,2013-10-24 17:00:00,
2013-10-24 12:06:00,49.0,33.5,30.39,East,81,7.0,9.0,55,0.00,FEW,FEW,0.00,WeatherDisplay:10.37,2013-10-24 17:06:00,
2013-10-24 12:12:00,49.3,33.3,30.39,ENE,78,8.0,14.0,54,0.00,FEW,FEW,0.00,WeatherDisplay:10.37,2013-10-24 17:12:00,
2013-10-24 12:18:00,49.9,33.5,30.39,ENE,75,5.0,7.0,53,0.00,FEW,FEW,0.00,WeatherDisplay:10.37,2013-10-24 17:18:00,
2013-10-24 12:24:00,50.0,33.0,30.39,ENE,73,9.0,12.0,52,0.00,FEW,FEW,0.00,WeatherDisplay:10.37,2013-10-24 17:24:00,
2013-10-24 12:30:00,49.3,32.8,30.39,East,84,9.0,16.0,53,0.00,FEW,FEW,0.00,WeatherDisplay:10.37,2013-10-24 17:30:00,
2013-10-24 12:36:00,49.5,33.0,30.39,East,80,6.0,13.0,53,0.00,FEW,FEW,0.00,WeatherDisplay:10.37,2013-10-24 17:36:00,
2013-10-24 12:42:00,49.3,32.4,30.38,ENE,68,7.0,10.0,52,0.00,FEW,FEW,0.00,WeatherDisplay:10.37,2013-10-24 17:42:00,
2013-10-24 12:48:00,50.1,33.1,30.38,ESE,104,10.0,13.0,52,0.00,FEW,FEW,0.00,WeatherDisplay:10.37,2013-10-24 17:48:00,
2013-10-24 12:54:00,49.9,32.9,30.38,East,95,10.0,15.0,52,0.00,FEW,FEW,0.00,WeatherDisplay:10.37,2013-10-24 17:54:00,
2013-10-24 13:00:00,50.8,33.8,30.38,ENE,72,8.0,10.0,52,0.00,FEW,FEW,0.00,WeatherDisplay:10.37,2013-10-24 18:00:00,
2013-10-24 13:06:00,51.7,34.2,30.37,ENE,60,7.0,12.0,51,0.00,CLR,CLR,0.00,WeatherDisplay:10.37,2013-10-24 18:06:00,
2013-10-24 13:12:00,51.1,33.6,30.37,ENE,66,9.0,12.0,51,0.00,CLR,CLR,0.00,WeatherDisplay:10.37,2013-10-24 18:12:00,
2013-10-24 13:18:00,50.8,33.3,30.36,ENE,71,7.0,9.0,51,0.00,CLR,CLR,0.00,WeatherDisplay:10.37,2013-10-24 18:18:00,
2013-10-24 13:24:00,51.5,33.4,30.36,ENE,64,7.0,12.0,50,0.00,CLR,CLR,0.00,WeatherDisplay:10.37,2013-10-24 18:24:00,
2013-10-24 13:30:00,51.7,33.6,30.35,ENE,61,8.0,13.0,50,0.00,CLR,CLR,0.00,WeatherDisplay:10.37,2013-10-24 18:30:00,
2013-10-24 13:36:00,52.3,33.1,30.35,ENE,61,6.0,8.0,48,0.00,CLR,CLR,0.00,WeatherDisplay:10.37,2013-10-24 18:36:00,
2013-10-24 13:42:00,53.7,34.4,30.36,North,352,3.0,6.0,48,0.00,CLR,CLR,0.00,WeatherDisplay:10.37,2013-10-24 18:42:00,
2013-10-24 13:48:00,54.4,34.5,30.36,NNW,339,3.0,7.0,47,0.00,CLR,CLR,0.00,WeatherDisplay:10.37,2013-10-24 18:48:00,
2013-10-24 13:54:00,52.3,33.7,30.36,NE,50,6.0,12.0,49,0.00,CLR,CLR,0.00,WeatherDisplay:10.37,2013-10-24 18:54:00,
2013-10-24 14:00:00,53.7,32.9,30.36,NNE,29,5.0,12.0,45,0.00,CLR,CLR,0.00,WeatherDisplay:10.37,2013-10-24 19:00:00,
2013-10-24 14:06:00,52.9,33.8,30.35,ESE,114,5.0,6.0,48,0.00,CLR,CLR,0.00,WeatherDisplay:10.37,2013-10-24 19:06:00,
2013-10-24 14:12:00,54.0,33.1,30.35,SE,136,5.0,6.0,45,0.00,CLR,CLR,0.00,WeatherDisplay:10.37,2013-10-24 19:12:00,
2013-10-24 14:18:00,53.7,33.4,30.36,NE,35,6.0,9.0,46,0.00,CLR,CLR,0.00,WeatherDisplay:10.37,2013-10-24 19:18:00,
2013-10-24 14:24:00,54.5,33.0,30.36,NNW,334,2.0,6.0,44,0.00,CLR,CLR,0.00,WeatherDisplay:10.37,2013-10-24 19:24:00,
2013-10-24 14:30:00,53.8,32.9,30.35,NNW,342,0.0,6.0,45,0.00,CLR,CLR,0.00,WeatherDisplay:10.37,2013-10-24 19:30:00,
2013-10-24 14:36:00,54.7,33.2,30.35,SW,217,3.0,5.0,44,0.00,CLR,CLR,0.00,WeatherDisplay:10.37,2013-10-24 19:36:00,
2013-10-24 14:42:00,55.4,33.2,30.35,NNE,28,3.0,5.0,43,0.00,CLR,CLR,0.00,WeatherDisplay:10.37,2013-10-24 19:42:00,
2013-10-24 14:48:00,54.6,32.0,30.35,WNW,296,5.0,7.0,42,0.00,CLR,CLR,0.00,WeatherDisplay:10.37,2013-10-24 19:48:00,
2013-10-24 14:54:00,53.8,31.8,30.35,NE,42,7.0,9.0,43,0.00,CLR,CLR,0.00,WeatherDisplay:10.37,2013-10-24 19:54:00,
2013-10-24 15:00:00,54.4,32.4,30.35,ENE,64,3.0,6.0,43,0.00,CLR,CLR,0.00,WeatherDisplay:10.37,2013-10-24 20:00:00,
2013-10-24 15:06:00,53.8,31.2,30.35,North,352,1.0,6.0,42,0.00,CLR,CLR,0.00,WeatherDisplay:10.37,2013-10-24 20:06:00,
2013-10-24 15:12:00,54.0,32.6,30.35,ENE,62,7.0,8.0,44,0.00,CLR,CLR,0.00,WeatherDisplay:10.37,2013-10-24 20:12:00,
2013-10-24 15:18:00,54.6,32.5,30.35,ENE,72,5.0,6.0,43,0.00,CLR,CLR,0.00,WeatherDisplay:10.37,2013-10-24 20:18:00,
2013-10-24 15:24:00,52.8,30.9,30.35,East,84,6.0,10.0,43,0.00,CLR,CLR,0.00,WeatherDisplay:10.37,2013-10-24 20:24:00,
2013-10-24 15:30:00,53.5,31.0,30.34,ENE,73,6.0,7.0,42,0.00,CLR,CLR,0.00,WeatherDisplay:10.37,2013-10-24 20:30:00,
2013-10-24 15:36:00,54.5,32.4,30.34,ENE,69,6.0,12.0,43,0.00,CLR,CLR,0.00,WeatherDisplay:10.37,2013-10-24 20:36:00,
2013-10-24 15:42:00,54.2,32.2,30.34,ENE,68,3.0,7.0,43,0.00,CLR,CLR,0.00,WeatherDisplay:10.37,2013-10-24 20:42:00,
2013-10-24 15:48:00,53.1,31.2,30.34,ENE,69,7.0,12.0,43,0.00,CLR,CLR,0.00,WeatherDisplay:10.37,2013-10-24 20:48:00,
2013-10-24 15:54:00,52.8,30.9,30.34,ENE,77,5.0,9.0,43,0.00,CLR,CLR,0.00,WeatherDisplay:10.37,2013-10-24 20:54:00,
2013-10-24 16:00:00,54.1,32.0,30.34,ENE,60,2.0,5.0,43,0.00,CLR,CLR,0.00,WeatherDisplay:10.37,2013-10-24 21:00:00,
2013-10-24 16:06:00,53.6,31.0,30.34,NNE,25,6.0,7.0,42,0.00,FEW,FEW,0.00,WeatherDisplay:10.37,2013-10-24 21:06:00,
2013-10-24 16:12:00,53.4,30.9,30.34,ENE,65,6.0,7.0,42,0.00,FEW,FEW,0.00,WeatherDisplay:10.37,2013-10-24 21:12:00,
2013-10-24 16:21:00,53.0,31.0,30.34,ENE,74,2.0,7.0,43,0.00,FEW,FEW,0.00,WeatherDisplay:10.37,2013-10-24 21:21:00,
2013-10-24 16:27:00,53.7,31.7,30.33,NE,48,0.0,4.0,43,0.00,FEW,FEW,0.00,WeatherDisplay:10.37,2013-10-24 21:27:00,
2013-10-24 16:33:00,54.0,30.2,30.33,NE,34,5.0,6.0,40,0.00,FEW,FEW,0.00,WeatherDisplay:10.37,2013-10-24 21:33:00,
2013-10-24 16:39:00,53.8,30.6,30.33,NNE,19,7.0,12.0,41,0.00,FEW,FEW,0.00,WeatherDisplay:10.37,2013-10-24 21:39:00,
2013-10-24 16:45:00,52.6,30.2,30.33,ESE,111,6.0,8.0,42,0.00,FEW,FEW,0.00,WeatherDisplay:10.37,2013-10-24 21:45:00,
2013-10-24 16:51:00,52.6,30.7,30.33,East,84,6.0,9.0,43,0.00,FEW,FEW,0.00,WeatherDisplay:10.37,2013-10-24 21:51:00,
2013-10-24 16:57:00,52.3,30.4,30.33,ENE,78,5.0,10.0,43,0.00,FEW,FEW,0.00,WeatherDisplay:10.37,2013-10-24 21:57:00,
2013-10-24 17:03:00,53.5,30.4,30.33,East,87,6.0,7.0,41,0.00,FEW,FEW,0.00,WeatherDisplay:10.37,2013-10-24 22:03:00,
2013-10-24 17:09:00,53.7,31.2,30.33,NE,48,5.0,7.0,42,0.00,FEW,FEW,0.00,WeatherDisplay:10.37,2013-10-24 22:09:00,
2013-10-24 17:15:00,53.6,30.4,30.32,ENE,72,5.0,8.0,41,0.00,FEW,FEW,0.00,WeatherDisplay:10.37,2013-10-24 22:15:00,
2013-10-24 17:21:00,53.0,29.3,30.32,East,82,6.0,9.0,40,0.00,FEW,FEW,0.00,WeatherDisplay:10.37,2013-10-24 22:21:00,
2013-10-24 17:27:00,52.4,29.3,30.33,ENE,77,3.0,6.0,41,0.00,FEW,FEW,0.00,WeatherDisplay:10.37,2013-10-24 22:27:00,
2013-10-24 17:33:00,52.0,29.0,30.33,ENE,73,7.0,12.0,41,0.00,FEW,FEW,0.00,WeatherDisplay:10.37,2013-10-24 22:33:00,
2013-10-24 17:39:00,52.0,30.1,30.32,ENE,75,2.0,6.0,43,0.00,FEW,FEW,0.00,WeatherDisplay:10.37,2013-10-24 22:39:00,
2013-10-24 17:45:00,51.7,29.9,30.32,ENE,59,6.0,9.0,43,0.00,FEW,FEW,0.00,WeatherDisplay:10.37,2013-10-24 22:45:00,
2013-10-24 17:51:00,51.7,30.4,30.33,ENE,63,0.0,4.0,44,0.00,FEW,FEW,0.00,WeatherDisplay:10.37,2013-10-24 22:51:00,
2013-10-24 17:57:00,51.3,30.6,30.33,East,95,3.0,7.0,45,0.00,FEW,FEW,0.00,WeatherDisplay:10.37,2013-10-24 22:57:00,
2013-10-24 18:03:00,50.9,29.7,30.33,ENE,77,3.0,5.0,44,0.00,FEW,FEW,0.00,WeatherDisplay:10.37,2013-10-24 23:03:00,
2013-10-24 18:09:00,50.8,30.2,30.33,ENE,69,0.0,4.0,45,0.00,FEW,FEW,0.00,WeatherDisplay:10.37,2013-10-24 23:09:00,
2013-10-24 18:15:00,50.6,31.1,30.32,East,97,0.0,0.0,47,0.00,FEW,FEW,0.00,WeatherDisplay:10.37,2013-10-24 23:15:00,
2013-10-24 18:21:00,50.2,31.2,30.32,East,88,0.0,0.0,48,0.00,FEW,FEW,0.00,WeatherDisplay:10.37,2013-10-24 23:21:00,
2013-10-24 18:27:00,49.5,30.6,30.33,East,79,0.0,0.0,48,0.00,FEW,FEW,0.00,WeatherDisplay:10.37,2013-10-24 23:27:00,
2013-10-24 18:33:00,49.0,30.1,30.33,ENE,65,3.0,5.0,48,0.00,FEW,FEW,0.00,WeatherDisplay:10.37,2013-10-24 23:33:00,
2013-10-24 18:39:00,48.6,30.7,30.33,ENE,74,0.0,0.0,50,0.00,FEW,FEW,0.00,WeatherDisplay:10.37,2013-10-24 23:39:00,
2013-10-24 18:45:00,48.0,30.7,30.33,ENE,66,0.0,0.0,51,0.00,FEW,FEW,0.00,WeatherDisplay:10.37,2013-10-24 23:45:00,
2013-10-24 18:51:00,47.5,30.2,30.33,ENE,70,1.0,3.0,51,0.00,FEW,FEW,0.00,WeatherDisplay:10.37,2013-10-24 23:51:00,
2013-10-24 18:57:00,47.0,29.8,30.33,ENE,75,1.0,5.0,51,0.00,FEW,FEW,0.00,WeatherDisplay:10.37,2013-10-24 23:57:00,
2013-10-24 19:03:00,46.6,30.3,30.34,ENE,67,0.0,0.0,53,0.00,FEW,FEW,0.00,WeatherDisplay:10.37,2013-10-25 00:03:00,
2013-10-24 19:09:00,46.1,29.9,30.34,ENE,74,0.0,0.0,53,0.00,FEW,FEW,0.00,WeatherDisplay:10.37,2013-10-25 00:09:00,
2013-10-24 19:15:00,45.7,29.5,30.34,East,79,0.0,0.0,53,0.00,FEW,FEW,0.00,WeatherDisplay:10.37,2013-10-25 00:15:00,
2013-10-24 19:21:00,45.4,29.7,30.34,ENE,77,0.0,2.0,54,0.00,FEW,FEW,0.00,WeatherDisplay:10.37,2013-10-25 00:21:00,
2013-10-24 19:27:00,45.0,29.8,30.35,ENE,67,0.0,0.0,55,0.00,FEW,FEW,0.00,WeatherDisplay:10.37,2013-10-25 00:27:00,
2013-10-24 19:33:00,44.5,29.7,30.35,ENE,67,0.0,0.0,56,0.00,FEW,FEW,0.00,WeatherDisplay:10.37,2013-10-25 00:33:00,
2013-10-24 19:39:00,43.9,30.4,30.35,ENE,67,0.0,0.0,59,0.00,FEW,FEW,0.00,WeatherDisplay:10.37,2013-10-25 00:39:00,
2013-10-24 19:45:00,43.4,30.0,30.35,ENE,77,0.0,0.0,59,0.00,FEW,FEW,0.00,WeatherDisplay:10.37,2013-10-25 00:45:00,
2013-10-24 19:51:00,43.4,30.4,30.36,ENE,72,0.0,0.0,60,0.00,FEW,FEW,0.00,WeatherDisplay:10.37,2013-10-25 00:51:00,
2013-10-24 19:57:00,43.1,30.5,30.36,ENE,67,0.0,0.0,61,0.00,FEW,FEW,0.00,WeatherDisplay:10.37,2013-10-25 00:57:00,
2013-10-24 20:03:00,42.5,30.4,30.36,East,82,0.0,0.0,62,0.00,FEW,FEW,0.00,WeatherDisplay:10.37,2013-10-25 01:03:00,
2013-10-24 20:09:00,42.3,30.2,30.36,East,87,0.0,0.0,62,0.00,FEW,FEW,0.00,WeatherDisplay:10.37,2013-10-25 01:09:00,
2013-10-24 20:15:00,42.3,30.2,30.36,East,84,1.0,6.0,62,0.00,FEW,FEW,0.00,WeatherDisplay:10.37,2013-10-25 01:15:00,
2013-10-24 20:21:00,42.3,30.2,30.36,East,81,0.0,0.0,62,0.00,FEW,FEW,0.00,WeatherDisplay:10.37,2013-10-25 01:21:00,
2013-10-24 20:27:00,41.9,29.4,30.36,East,94,0.0,0.0,61,0.00,FEW,FEW,0.00,WeatherDisplay:10.37,2013-10-25 01:27:00,
2013-10-24 20:33:00,41.9,29.8,30.36,ESE,116,0.0,0.0,62,0.00,FEW,FEW,0.00,WeatherDisplay:10.37,2013-10-25 01:33:00,
2013-10-24 20:39:00,41.8,29.7,30.37,ESE,105,0.0,0.0,62,0.00,FEW,FEW,0.00,WeatherDisplay:10.37,2013-10-25 01:39:00,
2013-10-24 20:45:00,41.4,29.3,30.37,East,85,0.0,0.0,62,0.00,FEW,FEW,0.00,WeatherDisplay:10.37,2013-10-25 01:45:00,
2013-10-24 20:51:00,41.2,29.5,30.37,ESE,106,0.0,0.0,63,0.00,FEW,FEW,0.00,WeatherDisplay:10.37,2013-10-25 01:51:00,
2013-10-24 20:57:00,40.9,29.6,30.37,ESE,113,0.0,0.0,64,0.00,FEW,FEW,0.00,WeatherDisplay:10.37,2013-10-25 01:57:00,
2013-10-24 21:03:00,40.5,29.2,30.37,ESE,106,0.0,0.0,64,0.00,CLR,CLR,0.00,WeatherDisplay:10.37,2013-10-25 02:03:00,
2013-10-24 21:09:00,40.0,29.9,30.37,ESE,106,0.0,0.0,67,0.00,CLR,CLR,0.00,WeatherDisplay:10.37,2013-10-25 02:09:00,
2013-10-24 21:15:00,39.4,29.7,30.38,East,97,0.0,0.0,68,0.00,CLR,CLR,0.00,WeatherDisplay:10.37,2013-10-25 02:15:00,
2013-10-24 21:21:00,39.4,29.7,30.38,East,90,0.0,0.0,68,0.00,CLR,CLR,0.00,WeatherDisplay:10.37,2013-10-25 02:21:00,
2013-10-24 21:27:00,39.1,29.7,30.38,East,90,0.0,0.0,69,0.00,CLR,CLR,0.00,WeatherDisplay:10.37,2013-10-25 02:27:00,
2013-10-24 21:33:00,39.1,30.1,30.38,East,100,0.0,0.0,70,0.00,CLR,CLR,0.00,WeatherDisplay:10.37,2013-10-25 02:33:00,
2013-10-24 21:39:00,38.7,29.8,30.38,ENE,78,0.0,0.0,70,0.00,CLR,CLR,0.00,WeatherDisplay:10.37,2013-10-25 02:39:00,
2013-10-24 21:45:00,38.5,29.5,30.38,ENE,77,0.0,0.0,70,0.00,CLR,CLR,0.00,WeatherDisplay:10.37,2013-10-25 02:45:00,
2013-10-24 21:51:00,38.5,29.5,30.38,East,84,0.0,0.0,70,0.00,CLR,CLR,0.00,WeatherDisplay:10.37,2013-10-25 02:51:00,
2013-10-24 21:57:00,38.5,29.5,30.38,ESE,104,0.0,0.0,70,0.00,CLR,CLR,0.00,WeatherDisplay:10.37,2013-10-25 02:57:00,
2013-10-24 22:03:00,38.3,29.3,30.39,ESE,119,0.0,0.0,70,0.00,CLR,CLR,0.00,WeatherDisplay:10.37,2013-10-25 03:03:00,
2013-10-24 22:09:00,38.0,29.5,30.39,East,91,0.0,0.0,71,0.00,CLR,CLR,0.00,WeatherDisplay:10.37,2013-10-25 03:09:00,
2013-10-24 22:15:00,38.2,29.6,30.39,East,90,0.0,0.0,71,0.00,CLR,CLR,0.00,WeatherDisplay:10.37,2013-10-25 03:15:00,
2013-10-24 22:21:00,37.7,29.5,30.39,East,90,0.0,0.0,72,0.00,CLR,CLR,0.00,WeatherDisplay:10.37,2013-10-25 03:21:00,
2013-10-24 22:27:00,37.6,29.3,30.39,East,90,0.0,0.0,72,0.00,CLR,CLR,0.00,WeatherDisplay:10.37,2013-10-25 03:27:00,
2013-10-24 22:33:00,37.2,29.3,30.39,East,90,0.0,0.0,73,0.00,CLR,CLR,0.00,WeatherDisplay:10.37,2013-10-25 03:33:00,
2013-10-24 22:39:00,37.3,29.7,30.40,East,90,0.0,0.0,74,0.00,CLR,CLR,0.00,WeatherDisplay:10.37,2013-10-25 03:39:00,
2013-10-24 22:45:00,37.4,30.5,30.40,East,90,0.0,0.0,76,0.00,CLR,CLR,0.00,WeatherDisplay:10.37,2013-10-25 03:45:00,
2013-10-24 22:51:00,37.4,30.8,30.40,East,90,0.0,0.0,77,0.00,CLR,CLR,0.00,WeatherDisplay:10.37,2013-10-25 03:51:00,
2013-10-24 22:57:00,36.9,29.7,30.40,East,90,0.0,0.0,75,0.00,CLR,CLR,0.00,WeatherDisplay:10.37,2013-10-25 03:57:00,
2013-10-24 23:03:00,36.9,31.0,30.40,East,90,0.0,0.0,79,0.00,CLR,CLR,0.00,WeatherDisplay:10.37,2013-10-25 04:03:00,
2013-10-24 23:06:00,36.7,30.4,30.40,East,90,0.0,0.0,78,0.00,CLR,CLR,0.00,WeatherDisplay:10.37,2013-10-25 04:06:00,
2013-10-24 23:12:00,36.2,29.3,30.40,East,90,0.0,0.0,76,0.00,CLR,CLR,0.00,WeatherDisplay:10.37,2013-10-25 04:12:00,
2013-10-24 23:18:00,35.6,29.7,30.40,East,90,0.0,0.0,79,0.00,CLR,CLR,0.00,WeatherDisplay:10.37,2013-10-25 04:18:00,
2013-10-24 23:24:00,35.6,30.9,30.40,East,90,0.0,0.0,83,0.00,CLR,CLR,0.00,WeatherDisplay:10.37,2013-10-25 04:24:00,
2013-10-24 23:30:00,35.5,30.5,30.41,East,90,0.0,0.0,82,0.00,CLR,CLR,0.00,WeatherDisplay:10.37,2013-10-25 04:30:00,
2013-10-24 23:36:00,35.6,30.9,30.41,East,90,0.0,0.0,83,0.00,CLR,CLR,0.00,WeatherDisplay:10.37,2013-10-25 04:36:00,
2013-10-24 23:42:00,35.3,31.0,30.41,East,90,0.0,0.0,84,0.00,CLR,CLR,0.00,WeatherDisplay:10.37,2013-10-25 04:42:00,
2013-10-24 23:45:00,35.2,30.9,30.41,East,90,0.0,0.0,84,0.00,CLR,CLR,0.00,WeatherDisplay:10.37,2013-10-25 04:45:00,
2013-10-24 23:48:00,34.9,30.5,30.41,East,90,0.0,0.0,84,0.00,CLR,CLR,0.00,WeatherDisplay:10.37,2013-10-25 04:48:00,
2013-10-24 23:54:00,34.6,30.5,30.41,East,90,0.0,0.0,85,0.00,CLR,CLR,0.00,WeatherDisplay:10.37,2013-10-25 04:54:00,
2013-10-24 23:57:00,34.6,30.5,30.41,East,90,0.0,0.0,85,0.00,CLR,CLR,0.00,WeatherDisplay:10.37,2013-10-25 04:57:00,